Location: �couen
(49.0206°N, 2.3831°E)
Time: 11:51:08
(UTC+00:00)

Cosmos 2098 - Pass Details

Date: 04 June 2022
Orbit: 387 x 1577 km, 82.9° (Epoch: 30 June)

Event Time Altitude Azimuth Distance (km) Brightness Sun altitude
Rises 02:37:44 0° 346° (NNW) 2,293 8.6 -9.3°
Reaches altitude 10° 02:39:41 10° 342° (NNW) 1,435 7.4 -9.1°
Maximum altitude 02:42:37 53° 264° (W) 513 4.4 -8.7°
Drops below altitude 10° 02:45:53 10° 186° (S) 1,594 6.7 -8.4°
Enters shadow 02:46:39 - 184° (S) 1,930 7.1 -8.3°
